Location: Unspecified
(0.0000°N, 0.0000°E)
Time: 00:52:43
(UTC+00:00)

Explorer 25 - Pass Details

Date: 13 March 2026
Orbit: 523 x 2264 km, 81.3° (Epoch: 14 April)

Event Time Altitude Azimuth Distance (km) Brightness Sun altitude
Rises 19:55:28 0° 211° (SSW) 5,745 12.9 -26.5°
Reaches altitude 10° 20:00:17 10° 223° (SW) 4,586 12.5 -27.7°
Maximum altitude 20:08:24 22° 267° (W) 3,300 11.9 -29.7°
Drops below altitude 10° 20:15:12 10° 314° (NW) 3,700 12.0 -31.4°
Sets 20:18:39 0° 329° (NNW) 4,397 12.2 -32.3°
